Showing default

FIRST-MOVE, 39439

Orbit data source: Space-Track

FIRST-MOVE, 39439 is a payload satellite owned by TU Munchen (DE) in SSO that was launched on Thu, 21 Nov 2013 UTC via a DNEPR launch vehicle from the Orenburg, Russia (OREN). Payload-class satellites include a variety of spacecraft equipped with specific instruments for various scientific and technological missions. These include communications satellites like Starlink; space stations such as the ISS; scientific satellites like the Hubble; Earth observation satellites from companies like Planet Labs, Umbra, and HawkEye 360; GPS; miniature CubeSats for education and research; and military/defense satellites.

Loading next visibility...
Identifier
39439, 2013-066Z
Orbit
SSO
Country
Flag of DEDE / GER
Related business
Manufacturer
TU Munchen
Mission
Operational Amateur Technology
Bus & Motor
CUBESAT 1U, Unknown motor
Mass
0.917 kg wet, 0.917 kg dry
Launch date (UTC)
2013-11-21 (12 years ago)
Launch vehicle
DNEPR
Launch site
Orenburg, Russia (OREN)
Object type
Payload
Rocket body
Debris
Shape & HBR
Box + 2 Pan, 0.1 m
Radar Cross Section
0.022 m², Small (<0.1 m²)

Expand to show TLE details & history
Last TLE update: 10 hours ago

TLE from 10 hours ago
0 FIRST-MOVE
1 39439U 13066Z   25300.89990992  .00081225  00000-0  18223-2 0  9995
2 39439  97.7526 282.0628 0016764 192.9987 167.0830 15.42952473646422
Epoch: 2025-10-27T21:35Z
TLE epoch observation values (Epoch: 2025-10-27T21:35:52.217Z)
Latitude
0.00002°
Longitude
-78.3999°
Altitude
451.652 km
Speed
7.635 km/s
True Right ascension
18h 48m 15s
True Declination
0° 00' 00"
Sunlit
Object was in daylight at epoch
Visualization orbit readout
Latitude
Unknown
Longitude
Unknown
Altitude
Unknown
Speed
Unknown
Apparent Right ascension
Unknown
Apparent Declination
Unknown
Sunlit
N/A
Visualization observer readout
Local Sidereal Time
03:17:48
Azimuth
Unknown
Elevation
Unknown
Doppler factor
Unknown
Orbital elements
Apogee altitude
445.772 km
Perigee altitude
422.931 km
Semi-major axis
6,812.489 km
Eccentricity
0.00168
Inclination
97.7526°
RAAN
282.0628°
Arg. of periapsis
192.9987°
True anomaly
167.12585°
Mean anomaly
167.083°
Eccentric anomaly
167.10444°
Mean motion
3.85997 °/min
Orbital period
93.26 mins
BSTAR
0.0018223
Loading maneuver chart data...
Computing Atmospheric mass density...
Loading historical data...
Loading historical data...
Loading historical data...
Loading historical data...
Loading historical data...
Loading historical data...
Loading historical data...

Documentation

Showing up to 5 results
|